Location: Atbuku
(36.4936°N, 30.4362°E)
Time: 17:37:07
(UTC+00:00)

Cosmos 1538 Rocket - Pass Details

Date: 11 December 2025
Orbit: 747 x 788 km, 74.0° (Epoch: 15 January)

Event Time Altitude Azimuth Distance (km) Brightness Sun altitude
Rises 16:15:41 0° 345° (NNW) 3,253 7.3 -18.1°
Reaches altitude 10° 16:18:05 10° 349° (N) 2,329 6.5 -18.5°
Maximum altitude 16:23:21 64° 71° (ENE) 863 3.9 -19.6°
Drops below altitude 10° 16:28:37 10° 152° (SSE) 2,336 6.4 -20.6°
Sets 16:31:02 0° 156° (SSE) 3,263 7.2 -21.1°
